Regional Weather Roundup
Issued by NWS

Home | Current Version | Previous Version | Graphics & Text | Print | Product List | Glossary Off
Versions: 1 2 3 4 5 6 7 8 9 10 11 12 13 14 15 16 17 18 19 20 21 22 23 24 25 26 27 28 29 30 31 32 33 34 35 36 37 38 39 40 41 42 43 44 45 46 47 48 49 50

000
ASUS45 KSLC 170510
RWRUT

UTAH REGIONAL WEATHER ROUNDUP
NATIONAL WEATHER SERVICE SALT LAKE CITY UT
1100 PM MDT TUE SEP 16 2014

UTZ001>011-023>025-170600-

NORTHERN UTAH

CITY           SKY/WX    TMP DP  RH WIND       PRES   REMARKS
HILL AFB       CLEAR     74  42  31 E15       30.00F
LOGAN          CLEAR     61  50  67 N6        29.99S
OGDEN          CLEAR     72  43  35 S10       29.97S
PROVO AIRPORT  CLEAR     66  46  48 CALM      30.03R
SALT LAKE CITY CLEAR     75  43  31 SE10      29.96F
VERNAL         PTCLDY    65  44  46 W7        30.11S
WENDOVER       CLEAR     73  36  25 CALM      29.93S
HEBER CITY     CLEAR     54  43  66 SE5       30.13R
WEST JORDAN    CLEAR     70  39  32 SW9       30.01S

$$

UTZ012>022-026-027-170600-

SOUTHERN UTAH

CITY           SKY/WX    TMP DP  RH WIND       PRES   REMARKS
BRYCE CANYON   CLOUDY    51  44  77 W5        30.31S
CEDAR CITY     PTCLDY    74  38  27 SE10      30.11S
MILFORD        CLEAR     69  35  28 S7        30.05R
MOAB/CYNLANDS  CLEAR     68  42  38 CALM      30.03S
PRICE          CLOUDY    68  35  29 NE8       30.15S
ST GEORGE      CLEAR     86  55  35 SW14      29.93R
KANAB            N/A     72  46  40 N6        30.12

$$

REGIONAL REPORTS     COLORADO/ARIZONA

CITY           SKY/WX    TMP DP  RH WIND       PRES   REMARKS
CRAIG, CO      PTCLDY    53  41  63 NE3       30.20S
GRAND JUNCTION CLEAR     67  42  40 E6        30.08R
RIFLE          CLEAR     62  41  46 SE6       30.16R
MONTROSE       CLEAR     63  42  46 SE9       30.18S
CORTEZ         CLEAR     59  50  72 E5        30.19S
PAGE, AZ       CLOUDY    77  53  43 SW13G28   30.06R
GRAND CANYON   CLOUDY    62  53  72 E5        30.25S
KINGMAN        LGT RAIN  71  61  70 N8        30.02S
FLAGSTAFF      LGT RAIN  59  55  87 E6        30.28S

$$

REGIONAL REPORTS    NEVADA/IDAHO/WYOMING

CITY           SKY/WX    TMP DP  RH WIND       PRES   REMARKS
LAS VEGAS, NV  MOCLDY    86  54  33 S13       29.88R
ELY            CLEAR     62  38  40 S14       30.14S
ELKO           CLEAR     65  35  33 CALM      30.00R
POCATELLO, ID  PTCLDY    68  40  35 E5        29.98F
BURLEY         CLEAR     61  48  62 S5        29.94S
EVANSTON, WY   CLEAR     60  39  45 SE9       30.22F
ROCK SPRINGS   NOT AVBL

$$



USA.gov is the U.S. government's official web portal to all federal, state and local government web resources and services.